Terug naar catalogus

SL-8 DEB

ActiefLEO
NORAD 13517·DEBRIS·🇷🇺 Russia

Gelanceerd Mar 15, 1965 vanaf Baikonur Cosmodrome

Loading…

Volgende Passages (komende 24 uur)

TLE

VersSource: Space-Track

Epoch: Sep 14, 2026, 09:52 UTC

1 13517U 65020FF  26257.41131734  .00000688  00000-0  61410-3 0  9993
2 13517  55.5730  23.9984 0521071 287.9310 104.5627 13.44167084148078

Volg SL-8 DEB in realtime met AllMySat

Download on the App Store